When you browse on this site, cookies collect data to enhance your experience and personalize the content and advertising you see.
Visit our Privacy Policy to learn more. By continuing to use the site, you agree to this use of cookies and data.
  • In Portugal
  • List of Countries
  • For 7 days
  • Water Temperature
  • Satellite Maps
  • Weather Map
  • Weather Widgets
  • user-avatar
    Login

    Hourly Weather Czarze

    Today, 12 December, Wednesday

    Time Temperature Precipitation Wind Pressure Humidity
    00:00 +1°C° 0 mm 2 mps 749 mmHg 90%
    01:00 +1°C° 0 mm 2 mps 749 mmHg 90%
    02:00 +1°C° 0 mm 2 mps 750 mmHg 90%
    03:00 -1°C° 0 mm 2 mps 750 mmHg 90%
    04:00 -1°C° 0 mm 2 mps 751 mmHg 89%
    05:00 -1°C° 0 mm 2 mps 751 mmHg 90%
    06:00 -1°C° 0 mm 2 mps 751 mmHg 90%
    07:00 -2°C° 0 mm 2 mps 752 mmHg 91%
    08:00 +1°C° 0 mm 1 mps 752 mmHg 89%
    09:00 +1°C° 0 mm 1 mps 753 mmHg 87%
    10:00 +2°C° 0 mm 1 mps 753 mmHg 85%
    11:00 +1°C° 0 mm 2 mps 753 mmHg 84%
    12:00 +2°C° 0 mm 2 mps 754 mmHg 83%
    13:00 +2°C° 0 mm 2 mps 754 mmHg 81%
    14:00 +2°C° 0 mm 2 mps 754 mmHg 85%
    15:00 +2°C° 0 mm 1 mps 754 mmHg 88%
    16:00 +1°C° 0 mm 1 mps 754 mmHg 92%
    17:00 -1°C° 0 mm 2 mps 754 mmHg 92%
    18:00 -1°C° 0 mm 2 mps 754 mmHg 93%
    19:00 -1°C° 0 mm 2 mps 755 mmHg 93%
    20:00 -1°C° 0 mm 2 mps 755 mmHg 93%
    21:00 -1°C° 0 mm 2 mps 755 mmHg 93%
    22:00 -1°C° 0 mm 2 mps 755 mmHg 93%
    23:00 -1°C° 0 mm 2 mps 755 mmHg 93%

    Tomorrow, 13 December, Thursday

    Time Temperature Precipitation Wind Pressure Humidity
    00:00 -1°C° 0 mm 2 mps 755 mmHg 93%
    01:00 -1°C° 0 mm 2 mps 755 mmHg 93%
    02:00 -1°C° 0 mm 2 mps 755 mmHg 93%
    03:00 -1°C° 0 mm 2 mps 755 mmHg 93%
    04:00 -1°C° 0 mm 2 mps 755 mmHg 92%
    05:00 -1°C° 0 mm 2 mps 755 mmHg 91%
    06:00 -2°C° 0 mm 2 mps 755 mmHg 90%
    07:00 -2°C° 0 mm 2 mps 754 mmHg 89%
    08:00 -1°C° 0 mm 2 mps 755 mmHg 87%
    09:00 -1°C° 0 mm 2 mps 755 mmHg 85%
    10:00 +1°C° 0 mm 1 mps 755 mmHg 83%
    11:00 +1°C° 0 mm 1 mps 755 mmHg 81%
    12:00 +1°C° 0 mm 1 mps 754 mmHg 79%
    13:00 +2°C° 0 mm 1 mps 754 mmHg 78%
    14:00 +1°C° 0 mm 1 mps 754 mmHg 81%
    15:00 +1°C° 0 mm 1 mps 754 mmHg 84%
    16:00 0°C° 0 mm 1 mps 754 mmHg 87%
    17:00 0°C° 0 mm 1 mps 754 mmHg 88%
    18:00 0°C° 0 mm 1 mps 754 mmHg 90%
    19:00 0°C° 0 mm 1 mps 755 mmHg 91%
    20:00 -3°C° 0 mm 2 mps 755 mmHg 91%
    21:00 -3°C° 0 mm 2 mps 755 mmHg 91%
    22:00 -3°C° 0 mm 2 mps 755 mmHg 91%
    23:00 -3°C° 0 mm 2 mps 755 mmHg 90%

    Day after tomorrow, 14 December, Friday

    Time Temperature Precipitation Wind Pressure Humidity
    00:00 -3°C° 0 mm 2 mps 755 mmHg 90%
    01:00 -3°C° 0 mm 2 mps 755 mmHg 89%
    02:00 -1°C° 0 mm 1 mps 755 mmHg 89%
    03:00 -1°C° 0 mm 1 mps 755 mmHg 89%
    04:00 -1°C° 0 mm 1 mps 755 mmHg 89%
    05:00 -1°C° 0 mm 1 mps 755 mmHg 89%
    06:00 -1°C° 0 mm 1 mps 755 mmHg 89%
    07:00 -3°C° 0 mm 2 mps 756 mmHg 90%
    08:00 -3°C° 0 mm 2 mps 756 mmHg 88%
    09:00 -3°C° 0 mm 2 mps 756 mmHg 86%
    10:00 -3°C° 0 mm 2 mps 756 mmHg 84%
    11:00 -2°C° 0 mm 2 mps 757 mmHg 81%
    12:00 -2°C° 0 mm 2 mps 757 mmHg 78%
    13:00 -2°C° 0 mm 2 mps 757 mmHg 75%
    14:00 -2°C° 0 mm 2 mps 757 mmHg 78%
    15:00 -3°C° 0 mm 2 mps 757 mmHg 81%
    16:00 -3°C° 0 mm 2 mps 757 mmHg 84%
    17:00 -3°C° 0 mm 2 mps 757 mmHg 84%
    18:00 -3°C° 0 mm 2 mps 757 mmHg 85%
    19:00 -4°C° 0 mm 2 mps 757 mmHg 86%
    20:00 -4°C° 0 mm 2 mps 757 mmHg 86%
    21:00 -4°C° 0 mm 2 mps 758 mmHg 86%
    22:00 -2°C° 0 mm 1 mps 758 mmHg 87%
    23:00 -2°C° 0 mm 1 mps 758 mmHg 87%

    15 December, Saturday

    Time Temperature Precipitation Wind Pressure Humidity
    00:00 -2°C° 0 mm 1 mps 758 mmHg 87%
    01:00 -2°C° 0 mm 1 mps 758 mmHg 87%
    02:00 -2°C° 0 mm 1 mps 758 mmHg 88%
    03:00 -2°C° 0 mm 1 mps 758 mmHg 89%
    04:00 -4°C° 0 mm 2 mps 758 mmHg 89%
    05:00 -4°C° 0 mm 2 mps 758 mmHg 90%
    06:00 -4°C° 0 mm 2 mps 758 mmHg 91%
    07:00 -2°C° 0 mm 1 mps 759 mmHg 91%
    08:00 -1°C° 0 mm 1 mps 759 mmHg 90%
    09:00 -1°C° 0 mm 1 mps 759 mmHg 89%
    10:00 -1°C° 0 mm 1 mps 760 mmHg 88%
    11:00 0°C° 0 mm 1 mps 760 mmHg 87%
    12:00 -2°C° 0 mm 2 mps 760 mmHg 86%
    13:00 -2°C° 0 mm 2 mps 760 mmHg 85%
    14:00 -2°C° 0 mm 2 mps 760 mmHg 88%
    15:00 -3°C° 0 mm 2 mps 760 mmHg 90%
    16:00 -3°C° 0 mm 2 mps 760 mmHg 93%
    17:00 -3°C° 0 mm 2 mps 760 mmHg 93%
    18:00 -3°C° 0 mm 2 mps 760 mmHg 94%
    19:00 -3°C° 0 mm 2 mps 760 mmHg 94%
    20:00 -3°C° 0 mm 2 mps 760 mmHg 94%
    21:00 -3°C° 0 mm 2 mps 760 mmHg 94%
    22:00 -4°C° 0 mm 2 mps 760 mmHg 94%
    23:00 -4°C° 0 mm 2 mps 760 mmHg 93%

    16 December, Sunday

    Time Temperature Precipitation Wind Pressure Humidity
    00:00 -3°C° 0 mm 2 mps 760 mmHg 92%
    01:00 -3°C° 0 mm 2 mps 760 mmHg 91%
    02:00 -4°C° 0 mm 2 mps 760 mmHg 91%
    03:00 -4°C° 0 mm 2 mps 760 mmHg 90%
    04:00 -5°C° 0 mm 3 mps 759 mmHg 90%
    05:00 -5°C° 0 mm 3 mps 759 mmHg 89%
    06:00 -5°C° 0 mm 3 mps 759 mmHg 88%
    07:00 -5°C° 0 mm 4 mps 758 mmHg 87%
    08:00 -5°C° 0 mm 4 mps 758 mmHg 84%
    09:00 -4°C° 0 mm 4 mps 758 mmHg 80%
    10:00 -5°C° 0 mm 5 mps 758 mmHg 77%
    11:00 -5°C° 0 mm 5 mps 758 mmHg 76%
    12:00 -4°C° 0 mm 5 mps 757 mmHg 74%
    13:00 -4°C° 0 mm 5 mps 756 mmHg 73%
    14:00 -4°C° 0 mm 5 mps 756 mmHg 74%
    15:00 -4°C° 0 mm 6 mps 756 mmHg 76%
    16:00 -5°C° 0 mm 6 mps 755 mmHg 78%
    17:00 -5°C° 0 mm 6 mps 755 mmHg 78%
    18:00 -5°C° 0 mm 6 mps 755 mmHg 78%
    19:00 -5°C° 0 mm 6 mps 754 mmHg 78%
    20:00 -4°C° 0 mm 6 mps 754 mmHg 78%
    21:00 -4°C° 0 mm 6 mps 754 mmHg 78%
    22:00 -4°C° 0 mm 6 mps 753 mmHg 77%
    23:00 -4°C° 0 mm 5 mps 753 mmHg 78%

    17 December, Monday

    Time Temperature Precipitation Wind Pressure Humidity
    00:00 -4°C° 0 mm 5 mps 752 mmHg 78%
    01:00 -4°C° 0 mm 5 mps 752 mmHg 79%
    02:00 -4°C° 0 mm 5 mps 751 mmHg 80%
    03:00 -4°C° 0 mm 5 mps 751 mmHg 81%
    04:00 -4°C° 0 mm 5 mps 750 mmHg 82%
    05:00 -4°C° 0 mm 5 mps 750 mmHg 83%
    06:00 -4°C° 0 mm 4 mps 749 mmHg 83%
    07:00 -4°C° 0 mm 4 mps 749 mmHg 84%
    08:00 -4°C° 0.4 mm 4 mps 748 mmHg 86%
    09:00 -4°C° 0.4 mm 4 mps 748 mmHg 88%
    10:00 -3°C° 0.4 mm 4 mps 748 mmHg 90%
    11:00 -3°C° 0.8 mm 4 mps 747 mmHg 91%
    12:00 -2°C° 0.8 mm 3 mps 747 mmHg 92%
    13:00 -2°C° 0.8 mm 3 mps 746 mmHg 92%
    14:00 -2°C° 0.6 mm 2 mps 746 mmHg 93%
    15:00 -2°C° 0.6 mm 2 mps 746 mmHg 94%
    16:00 0°C° 0.6 mm 1 mps 745 mmHg 95%
    17:00 -2°C° 0.1 mm 2 mps 745 mmHg 95%
    18:00 -3°C° 0.1 mm 2 mps 746 mmHg 95%
    19:00 -3°C° 0.1 mm 2 mps 746 mmHg 95%
    20:00 -3°C° 0 mm 2 mps 746 mmHg 95%
    21:00 -3°C° 0 mm 2 mps 746 mmHg 95%
    22:00 -4°C° 0 mm 2 mps 747 mmHg 95%
    23:00 -4°C° 0 mm 2 mps 747 mmHg 95%
    Show more